Todos
Goondiwindi Airport (Goondiwindi, Queensland) GOO Condições meteorológicas
|
Goondiwindi, Queensland (GOO / YGDI)
Céu Limpo
Vento Ligeiro |
|
17 °C |
There is no TAF data available at GOO or any nearby airports.
Histórico recente de METAR GOO
| Date | Time (AEST) | Flight Rules | Wind Dir. | Speed | Type | Height AGL (ft) | Visibility | Temp (°C) | Temp (°F) | Dew Point (°C) | Dew Point (°F) | Rel. Humid. | Pressure | Density Altitude | Remarks |
|---|---|---|---|---|---|---|---|---|---|---|---|---|---|---|---|
| 05-Mai | 21:00 | n/a | 230° | 4 kt | Missing | 17° | 62° | 14° | 57° | 82% | 1019 mb | 783 ft | |||
| 05-Mai | 20:00 | n/a | 200° | 4 kt | Missing | 17° | 62° | 14° | 57° | 82% | 1019 mb | 783 ft | |||
| 05-Mai | 19:00 | n/a | 200° | 6 kt | Missing | 17° | 62° | 14° | 57° | 82% | 1018 mb | 812 ft | |||
| 05-Mai | 18:00 | n/a | 210° | 7 kt | Missing | 17° | 62° | 15° | 59° | 88% | 1018 mb | 812 ft | |||
| 05-Mai | 17:00 | n/a | 230° | 8 kt | Missing | 18° | 64° | 15° | 59° | 83% | 1017 mb | 962 ft | |||
| 05-Mai | 16:00 | n/a | 210° | 11 kt | Missing | 19° | 66° | 17° | 62° | 88% | 1017 mb | 1.082 ft | |||
| 05-Mai | 15:00 | n/a | 230° | 13 kt | Missing | 22° | 71° | 16° | 60° | 69% | 1016 mb | 1.472 ft | |||
| 05-Mai | 14:00 | n/a | 240° | 7 kt | Missing | 25° | 77° | 15° | 59° | 54% | 1016 mb | 1.832 ft | |||
| 05-Mai | 13:00 | n/a | 240° | 5 kt | Missing | 25° | 77° | 15° | 59° | 54% | 1016 mb | 1.832 ft | |||
| 05-Mai | 12:00 | n/a | 310° | 1 kt | Missing | 25° | 77° | 16° | 60° | 57% | 1017 mb | 1.802 ft | |||
| 05-Mai | 11:00 | n/a | 20° | 5 kt | Missing | 24° | 75° | 16° | 60° | 61% | 1017 mb | 1.682 ft | |||
| 05-Mai | 10:00 | n/a | 10° | 5 kt | Missing | 23° | 73° | 16° | 60° | 65% | 1018 mb | 1.532 ft | |||
| 05-Mai | 09:00 | n/a | 30° | 5 kt | Missing | 23° | 73° | 16° | 60° | 65% | 1018 mb | 1.532 ft | |||
| 05-Mai | 08:00 | n/a | 10° | 4 kt | Missing | 21° | 69° | 15° | 59° | 69% | 1018 mb | 1.292 ft | |||
| 05-Mai | 07:00 | n/a | 50° | 2 kt | Missing | 18° | 64° | 14° | 57° | 77% | 1018 mb | 932 ft | |||
| 05-Mai | 06:00 | n/a | Calm | Missing | 17° | 62° | 13° | 55° | 77% | 1017 mb | 842 ft | ||||
| 05-Mai | 05:00 | n/a | 10° | 3 kt | Missing | 19° | 66° | 14° | 57° | 73% | 1017 mb | 1.082 ft | |||
| 05-Mai | 04:00 | n/a | 290° | 1 kt | Missing | 20° | 68° | 14° | 57° | 68% | 1017 mb | 1.202 ft | |||
| 05-Mai | 03:00 | n/a | 10° | 5 kt | Missing | 20° | 68° | 15° | 59° | 73% | 1016 mb | 1.232 ft | |||
| 05-Mai | 02:00 | n/a | 20° | 4 kt | Missing | 19° | 66° | 13° | 55° | 68% | 1016 mb | 1.112 ft | |||
| 05-Mai | 01:00 | n/a | 50° | 4 kt | Missing | 19° | 66° | 11° | 51° | 60% | 1016 mb | 1.112 ft | |||
| 05-Mai | 00:00 | n/a | 50° | 5 kt | Missing | 21° | 69° | 11° | 51° | 53% | 1016 mb | 1.352 ft | |||
| 04-Mai | 23:00 | n/a | 50° | 5 kt | Missing | 21° | 69° | 10° | 50° | 49% | 1016 mb | 1.352 ft | |||
| 04-Mai | 22:00 | n/a | Calm | Missing | 19° | 66° | 9° | 48° | 52% | 1017 mb | 1.082 ft |
Entrar
| Seu navegador não suporta. atualize seu navegador |
